Precipitable_Water
0.57 0.56 0.55 0.53 0.52 0.50 0.50 0.49 0.47 0.47 0.47 0.46 0.46 0.45 0.45 0.45 0.45 0.46 0.47 0.48 0.48 0.48 0.48 0.47 0.48 0.47 0.45 0.43 0.41 0.39 0.38 0.28 0.22 0.20 0.20 0.18 0.22 0.31 0.32 0.36 0.45 0.42 0.37 0.32 0.28 0.25 0.19 0.20 0.18 0.26 0.32 0.33 0.32 0.27 0.31 0.32 0.36 0.33 0.21 0.18 0.17 0.18 0.17 0.18 0.18 0.18 0.20 0.19 0.20 0.21 0.22 0.20 0.18 0.20 0.36 0.49 0.51 0.49 0.57 0.61 0.71 0.79 0.82 0.91 1.03 1.13 1.24 1.33
0.58 0.56 0.55 0.54 0.52 0.51 0.50 0.49 0.48 0.47 0.46 0.46 0.45 0.45 0.45 0.45 0.45 0.45 0.46 0.47 0.47 0.47 0.47 0.47 0.47 0.47 0.46 0.42 0.41 0.39 0.33 0.26 0.19 0.20 0.17 0.20 0.23 0.25 0.34 0.39 0.43 0.43 0.39 0.29 0.23 0.22 0.18 0.18 0.18 0.27 0.31 0.26 0.36 0.27 0.31 0.27 0.33 0.24 0.20 0.20 0.16 0.19 0.19 0.21 0.21 0.20 0.19 0.19 0.20 0.21 0.22 0.21 0.20 0.21 0.22 0.28 0.37 0.33 0.39 0.52 0.62 0.62 0.76 0.91 1.02 1.12 1.19 1.30
0.57 0.56 0.55 0.54 0.53 0.52 0.51 0.49 0.49 0.47 0.46 0.45 0.45 0.44 0.43 0.44 0.45 0.45 0.45 0.46 0.46 0.45 0.46 0.46 0.46 0.45 0.44 0.44 0.40 0.36 0.31 0.22 0.21 0.14 0.14 0.19 0.22 0.23 0.27 0.43 0.46 0.44 0.35 0.23 0.23 0.23 0.19 0.18 0.22 0.27 0.30 0.25 0.28 0.26 0.27 0.27 0.27 0.25 0.22 0.18 0.19 0.21 0.21 0.22 0.22 0.21 0.21 0.21 0.20 0.20 0.21 0.20 0.20 0.21 0.21 0.24 0.35 0.38 0.32 0.37 0.54 0.53 0.60 0.76 0.93 1.07 1.16 1.23
0.58 0.57 0.55 0.54 0.53 0.52 0.51 0.50 0.49 0.47 0.46 0.45 0.44 0.44 0.43 0.43 0.44 0.44 0.44 0.44 0.45 0.44 0.45 0.45 0.45 0.44 0.44 0.41 0.39 0.37 0.27 0.20 0.13 0.13 0.26 0.36 0.32 0.27 0.28 0.38 0.45 0.44 0.37 0.31 0.24 0.24 0.27 0.24 0.27 0.31 0.30 0.24 0.25 0.31 0.23 0.26 0.22 0.24 0.22 0.19 0.20 0.22 0.20 0.21 0.22 0.22 0.22 0.22 0.21 0.20 0.20 0.19 0.19 0.21 0.20 0.31 0.33 0.41 0.40 0.48 0.41 0.48 0.64 0.79 0.95 1.04 1.14 1.17
0.59 0.57 0.55 0.54 0.53 0.52 0.50 0.49 0.48 0.48 0.46 0.45 0.44 0.43 0.43 0.43 0.43 0.43 0.43 0.43 0.43 0.43 0.44 0.44 0.43 0.44 0.42 0.40 0.36 0.35 0.21 0.13 0.19 0.37 0.51 0.46 0.40 0.33 0.32 0.38 0.45 0.42 0.34 0.31 0.26 0.26 0.31 0.32 0.33 0.33 0.32 0.24 0.26 0.26 0.23 0.26 0.24 0.22 0.20 0.23 0.23 0.23 0.20 0.21 0.21 0.21 0.22 0.23 0.21 0.21 0.19 0.18 0.21 0.21 0.20 0.19 0.17 0.23 0.36 0.49 0.55 0.59 0.67 0.71 0.81 0.94 1.03 1.03
0.58 0.58 0.56 0.54 0.53 0.52 0.51 0.50 0.49 0.48 0.46 0.45 0.44 0.42 0.42 0.43 0.42 0.42 0.42 0.43 0.43 0.43 0.43 0.43 0.43 0.41 0.41 0.38 0.36 0.30 0.17 0.11 0.39 0.44 0.52 0.55 0.44 0.39 0.40 0.43 0.44 0.40 0.32 0.26 0.23 0.26 0.34 0.36 0.34 0.29 0.27 0.27 0.24 0.22 0.23 0.23 0.24 0.17 0.20 0.22 0.24 0.23 0.20 0.20 0.20 0.21 0.21 0.20 0.19 0.19 0.20 0.21 0.20 0.20 0.21 0.19 0.17 0.25 0.47 0.56 0.59 0.62 0.69 0.78 0.85 0.90 0.92 0.94
0.58 0.57 0.56 0.55 0.53 0.52 0.51 0.50 0.49 0.48 0.47 0.45 0.44 0.42 0.42 0.42 0.42 0.42 0.42 0.42 0.42 0.42 0.42 0.42 0.41 0.41 0.39 0.38 0.37 0.26 0.17 0.15 0.35 0.61 0.55 0.57 0.53 0.47 0.44 0.43 0.41 0.34 0.29 0.23 0.24 0.28 0.34 0.34 0.34 0.29 0.27 0.25 0.25 0.23 0.23 0.22 0.22 0.19 0.18 0.21 0.21 0.22 0.20 0.21 0.20 0.21 0.21 0.20 0.20 0.21 0.21 0.19 0.18 0.17 0.21 0.19 0.20 0.31 0.53 0.64 0.67 0.72 0.79 0.85 0.79 0.82 0.82 0.89
0.58 0.56 0.55 0.54 0.53 0.52 0.51 0.50 0.49 0.48 0.47 0.45 0.44 0.43 0.42 0.42 0.41 0.41 0.42 0.41 0.41 0.41 0.42 0.41 0.41 0.40 0.39 0.32 0.23 0.18 0.20 0.15 0.27 0.46 0.55 0.56 0.54 0.54 0.48 0.43 0.36 0.32 0.26 0.21 0.25 0.29 0.36 0.34 0.30 0.33 0.27 0.22 0.21 0.22 0.23 0.21 0.21 0.18 0.18 0.20 0.20 0.20 0.20 0.20 0.20 0.20 0.20 0.20 0.21 0.21 0.19 0.19 0.19 0.18 0.19 0.17 0.24 0.51 0.61 0.70 0.71 0.73 0.75 0.79 0.78 0.80 0.84 0.89
0.58 0.57 0.57 0.55 0.53 0.52 0.51 0.50 0.49 0.48 0.47 0.46 0.44 0.43 0.43 0.41 0.40 0.40 0.41 0.41 0.41 0.42 0.42 0.42 0.40 0.40 0.41 0.33 0.22 0.15 0.14 0.20 0.31 0.43 0.54 0.51 0.47 0.47 0.43 0.34 0.35 0.29 0.24 0.22 0.28 0.35 0.38 0.33 0.35 0.34 0.23 0.21 0.25 0.23 0.23 0.21 0.17 0.18 0.18 0.19 0.19 0.18 0.19 0.20 0.20 0.19 0.18 0.19 0.20 0.18 0.18 0.19 0.17 0.19 0.16 0.15 0.34 0.57 0.67 0.67 0.70 0.71 0.69 0.72 0.75 0.77 0.82 0.93
0.59 0.58 0.56 0.55 0.53 0.52 0.51 0.50 0.49 0.48 0.47 0.46 0.45 0.44 0.43 0.41 0.40 0.40 0.40 0.41 0.41 0.41 0.42 0.42 0.42 0.41 0.36 0.26 0.21 0.13 0.16 0.38 0.44 0.51 0.56 0.54 0.50 0.43 0.38 0.35 0.34 0.30 0.23 0.20 0.30 0.38 0.33 0.34 0.33 0.33 0.32 0.27 0.28 0.24 0.26 0.23 0.18 0.20 0.19 0.18 0.18 0.18 0.19 0.19 0.18 0.18 0.19 0.18 0.18 0.16 0.16 0.17 0.18 0.16 0.12 0.14 0.28 0.63 0.59 0.61 0.64 0.63 0.61 0.71 0.76 0.83 0.91 1.01
0.59 0.57 0.56 0.54 0.53 0.52 0.50 0.49 0.49 0.48 0.47 0.46 0.45 0.44 0.43 0.41 0.40 0.39 0.40 0.40 0.41 0.42 0.43 0.43 0.44 0.38 0.31 0.33 0.17 0.13 0.27 0.50 0.60 0.57 0.53 0.52 0.48 0.41 0.33 0.30 0.34 0.28 0.23 0.22 0.31 0.39 0.39 0.40 0.41 0.38 0.30 0.26 0.24 0.23 0.22 0.21 0.21 0.19 0.19 0.18 0.18 0.19 0.19 0.19 0.18 0.18 0.19 0.17 0.18 0.17 0.16 0.16 0.16 0.16 0.14 0.16 0.33 0.49 0.50 0.54 0.59 0.60 0.65 0.70 0.78 0.86 0.98 1.02
0.57 0.56 0.55 0.53 0.52 0.52 0.51 0.49 0.48 0.48 0.47 0.46 0.45 0.44 0.42 0.41 0.39 0.38 0.39 0.40 0.41 0.43 0.44 0.45 0.44 0.40 0.32 0.24 0.21 0.16 0.30 0.56 0.66 0.62 0.58 0.51 0.43 0.40 0.34 0.29 0.32 0.28 0.22 0.23 0.34 0.39 0.41 0.40 0.40 0.35 0.23 0.25 0.21 0.23 0.21 0.23 0.21 0.20 0.18 0.15 0.16 0.17 0.16 0.17 0.17 0.18 0.19 0.17 0.18 0.19 0.17 0.15 0.16 0.14 0.15 0.17 0.38 0.53 0.51 0.53 0.56 0.56 0.63 0.73 0.84 0.92 0.99 0.97
0.58 0.56 0.53 0.53 0.52 0.51 0.50 0.49 0.48 0.48 0.47 0.45 0.44 0.43 0.42 0.40 0.38 0.37 0.38 0.40 0.42 0.44 0.47 0.46 0.42 0.40 0.29 0.16 0.18 0.23 0.39 0.55 0.56 0.55 0.55 0.51 0.42 0.37 0.32 0.29 0.32 0.29 0.24 0.25 0.31 0.37 0.41 0.40 0.35 0.30 0.29 0.25 0.23 0.19 0.22 0.22 0.20 0.20 0.18 0.16 0.14 0.14 0.13 0.15 0.17 0.17 0.17 0.17 0.18 0.19 0.12 0.13 0.14 0.16 0.17 0.18 0.29 0.51 0.58 0.54 0.52 0.51 0.61 0.73 0.84 0.86 0.83 0.82
0.56 0.55 0.54 0.52 0.51 0.51 0.50 0.49 0.47 0.47 0.45 0.44 0.43 0.42 0.41 0.39 0.37 0.36 0.37 0.40 0.44 0.47 0.49 0.50 0.46 0.37 0.26 0.16 0.17 0.26 0.30 0.36 0.41 0.46 0.43 0.54 0.41 0.30 0.27 0.32 0.35 0.27 0.27 0.30 0.37 0.42 0.41 0.42 0.35 0.29 0.29 0.24 0.21 0.25 0.21 0.19 0.20 0.16 0.17 0.16 0.13 0.12 0.10 0.14 0.15 0.16 0.14 0.17 0.19 0.19 0.13 0.13 0.15 0.16 0.18 0.18 0.19 0.39 0.46 0.53 0.51 0.49 0.56 0.68 0.78 0.82 0.72 0.75
0.56 0.55 0.53 0.52 0.51 0.50 0.50 0.49 0.47 0.45 0.44 0.43 0.42 0.41 0.40 0.37 0.35 0.35 0.38 0.41 0.46 0.50 0.50 0.52 0.44 0.30 0.17 0.17 0.24 0.28 0.38 0.47 0.38 0.38 0.41 0.41 0.37 0.27 0.24 0.31 0.35 0.34 0.33 0.38 0.38 0.40 0.40 0.37 0.31 0.25 0.23 0.26 0.24 0.21 0.17 0.16 0.17 0.17 0.14 0.12 0.13 0.11 0.12 0.13 0.15 0.16 0.14 0.17 0.19 0.18 0.15 0.14 0.15 0.17 0.18 0.19 0.19 0.28 0.38 0.47 0.49 0.48 0.52 0.56 0.68 0.74 0.71 0.73
0.56 0.55 0.54 0.52 0.51 0.50 0.50 0.49 0.47 0.45 0.43 0.43 0.41 0.40 0.39 0.36 0.33 0.34 0.39 0.41 0.47 0.51 0.49 0.39 0.34 0.29 0.19 0.14 0.18 0.33 0.34 0.32 0.32 0.38 0.39 0.41 0.38 0.24 0.26 0.30 0.37 0.40 0.38 0.36 0.38 0.37 0.37 0.32 0.26 0.24 0.22 0.23 0.21 0.18 0.16 0.14 0.15 0.16 0.14 0.13 0.11 0.12 0.12 0.14 0.16 0.17 0.18 0.18 0.19 0.18 0.15 0.17 0.17 0.18 0.18 0.18 0.19 0.24 0.31 0.38 0.44 0.47 0.49 0.59 0.69 0.71 0.72 0.71
0.56 0.55 0.53 0.52 0.52 0.52 0.51 0.49 0.46 0.44 0.43 0.42 0.41 0.38 0.36 0.33 0.32 0.35 0.41 0.48 0.46 0.47 0.48 0.37 0.36 0.33 0.14 0.24 0.31 0.27 0.25 0.27 0.34 0.35 0.39 0.44 0.40 0.29 0.29 0.31 0.34 0.37 0.38 0.37 0.36 0.34 0.33 0.26 0.26 0.24 0.23 0.20 0.19 0.17 0.13 0.11 0.12 0.13 0.15 0.13 0.13 0.12 0.14 0.14 0.17 0.19 0.19 0.18 0.16 0.18 0.17 0.18 0.17 0.18 0.19 0.19 0.19 0.24 0.26 0.34 0.40 0.45 0.52 0.62 0.69 0.68 0.67 0.61
0.54 0.55 0.53 0.52 0.52 0.51 0.50 0.49 0.46 0.44 0.43 0.41 0.39 0.34 0.30 0.32 0.36 0.40 0.40 0.44 0.48 0.46 0.43 0.51 0.46 0.27 0.17 0.28 0.20 0.19 0.29 0.30 0.28 0.36 0.38 0.44 0.41 0.37 0.35 0.29 0.33 0.34 0.33 0.30 0.33 0.27 0.28 0.22 0.22 0.18 0.18 0.18 0.17 0.15 0.11 0.09 0.11 0.12 0.12 0.13 0.14 0.16 0.17 0.16 0.16 0.18 0.18 0.17 0.17 0.17 0.17 0.17 0.17 0.17 0.18 0.19 0.21 0.18 0.25 0.31 0.37 0.42 0.51 0.61 0.64 0.59 0.57 0.54
0.55 0.54 0.53 0.52 0.51 0.51 0.51 0.49 0.46 0.45 0.42 0.41 0.38 0.35 0.37 0.39 0.45 0.47 0.37 0.38 0.31 0.23 0.18 0.22 0.26 0.14 0.18 0.19 0.23 0.28 0.28 0.31 0.32 0.36 0.35 0.38 0.41 0.42 0.39 0.39 0.34 0.29 0.25 0.23 0.25 0.24 0.24 0.21 0.19 0.16 0.13 0.14 0.15 0.15 0.13 0.13 0.14 0.14 0.15 0.17 0.17 0.16 0.17 0.16 0.18 0.21 0.20 0.17 0.16 0.16 0.16 0.18 0.19 0.18 0.19 0.21 0.26 0.25 0.25 0.32 0.40 0.45 0.54 0.53 0.50 0.51 0.50 0.51
0.55 0.54 0.53 0.53 0.52 0.52 0.50 0.49 0.47 0.45 0.43 0.37 0.32 0.28 0.35 0.33 0.38 0.40 0.41 0.37 0.25 0.18 0.20 0.25 0.25 0.21 0.28 0.31 0.29 0.35 0.39 0.37 0.30 0.29 0.30 0.37 0.40 0.38 0.36 0.35 0.31 0.27 0.24 0.17 0.21 0.22 0.24 0.15 0.12 0.10 0.11 0.13 0.15 0.16 0.16 0.16 0.16 0.16 0.18 0.17 0.17 0.17 0.17 0.18 0.19 0.23 0.23 0.17 0.16 0.17 0.18 0.19 0.21 0.20 0.21 0.21 0.22 0.31 0.35 0.38 0.41 0.42 0.42 0.43 0.46 0.47 0.50 0.53
0.58 0.55 0.53 0.53 0.53 0.51 0.50 0.48 0.47 0.45 0.44 0.40 0.33 0.22 0.19 0.36 0.34 0.30 0.39 0.38 0.38 0.34 0.24 0.28 0.32 0.30 0.23 0.33 0.37 0.37 0.31 0.30 0.32 0.29 0.25 0.37 0.41 0.36 0.32 0.32 0.28 0.21 0.21 0.21 0.19 0.25 0.21 0.15 0.12 0.11 0.11 0.12 0.14 0.16 0.16 0.15 0.14 0.14 0.16 0.17 0.16 0.18 0.17 0.19 0.21 0.25 0.25 0.18 0.17 0.18 0.18 0.19 0.21 0.21 0.22 0.22 0.19 0.20 0.21 0.32 0.38 0.38 0.36 0.38 0.39 0.42 0.47 0.56
0.56 0.59 0.55 0.53 0.51 0.51 0.51 0.48 0.46 0.44 0.44 0.40 0.32 0.19 0.34 0.44 0.47 0.49 0.40 0.27 0.36 0.40 0.37 0.31 0.33 0.27 0.34 0.38 0.41 0.43 0.39 0.33 0.29 0.28 0.26 0.33 0.37 0.29 0.31 0.29 0.25 0.18 0.21 0.23 0.24 0.22 0.16 0.12 0.12 0.13 0.14 0.14 0.13 0.14 0.15 0.14 0.13 0.14 0.16 0.18 0.17 0.19 0.20 0.21 0.23 0.24 0.23 0.19 0.17 0.19 0.19 0.20 0.21 0.21 0.22 0.21 0.21 0.21 0.21 0.21 0.25 0.36 0.38 0.38 0.39 0.40 0.48 0.55
0.53 0.55 0.58 0.54 0.52 0.51 0.51 0.48 0.44 0.43 0.37 0.29 0.23 0.24 0.36 0.46 0.47 0.48 0.41 0.36 0.30 0.37 0.35 0.33 0.28 0.27 0.27 0.40 0.44 0.46 0.34 0.29 0.26 0.26 0.24 0.29 0.35 0.30 0.32 0.26 0.23 0.21 0.22 0.24 0.20 0.18 0.14 0.13 0.14 0.15 0.15 0.14 0.13 0.13 0.13 0.13 0.14 0.17 0.19 0.19 0.17 0.20 0.20 0.17 0.24 0.24 0.23 0.21 0.19 0.20 0.19 0.20 0.22 0.22 0.22 0.22 0.21 0.22 0.23 0.23 0.22 0.31 0.34 0.36 0.35 0.39 0.44 0.49
0.54 0.55 0.57 0.56 0.52 0.50 0.49 0.46 0.43 0.37 0.34 0.31 0.26 0.27 0.42 0.45 0.44 0.42 0.37 0.28 0.23 0.28 0.31 0.33 0.35 0.33 0.30 0.32 0.42 0.40 0.34 0.31 0.30 0.26 0.27 0.28 0.29 0.33 0.32 0.27 0.23 0.23 0.20 0.23 0.22 0.18 0.14 0.17 0.19 0.19 0.16 0.14 0.11 0.12 0.12 0.14 0.15 0.19 0.19 0.20 0.20 0.22 0.23 0.22 0.23 0.24 0.24 0.22 0.24 0.22 0.20 0.19 0.21 0.21 0.21 0.23 0.24 0.22 0.27 0.29 0.28 0.31 0.40 0.44 0.47 0.50 0.52 0.50
0.55 0.53 0.55 0.56 0.51 0.50 0.46 0.45 0.32 0.34 0.40 0.37 0.40 0.48 0.56 0.58 0.56 0.49 0.34 0.25 0.26 0.22 0.31 0.31 0.36 0.32 0.33 0.47 0.50 0.38 0.35 0.38 0.35 0.32 0.29 0.27 0.30 0.31 0.27 0.31 0.27 0.20 0.19 0.23 0.23 0.21 0.24 0.25 0.28 0.24 0.21 0.17 0.15 0.14 0.16 0.17 0.15 0.17 0.22 0.22 0.21 0.23 0.23 0.22 0.23 0.22 0.21 0.19 0.21 0.20 0.15 0.16 0.21 0.22 0.22 0.24 0.25 0.32 0.33 0.30 0.32 0.32 0.31 0.41 0.46 0.47 0.52 0.60
0.55 0.53 0.54 0.56 0.53 0.48 0.48 0.32 0.34 0.46 0.40 0.40 0.44 0.53 0.56 0.57 0.56 0.47 0.35 0.22 0.15 0.23 0.30 0.18 0.31 0.21 0.39 0.37 0.41 0.39 0.41 0.32 0.38 0.34 0.33 0.28 0.32 0.27 0.27 0.26 0.26 0.18 0.19 0.22 0.22 0.25 0.26 0.29 0.30 0.27 0.25 0.22 0.19 0.17 0.18 0.18 0.15 0.16 0.20 0.25 0.23 0.23 0.23 0.22 0.21 0.21 0.19 0.16 0.19 0.22 0.16 0.15 0.21 0.20 0.22 0.27 0.29 0.31 0.36 0.37 0.41 0.44 0.49 0.48 0.48 0.50 0.55 0.60
0.54 0.53 0.55 0.56 0.52 0.50 0.34 0.25 0.49 0.47 0.40 0.43 0.50 0.52 0.58 0.55 0.59 0.46 0.29 0.21 0.16 0.22 0.20 0.27 0.23 0.29 0.31 0.36 0.36 0.36 0.25 0.27 0.36 0.36 0.34 0.35 0.27 0.30 0.23 0.22 0.22 0.22 0.24 0.26 0.23 0.20 0.28 0.28 0.28 0.28 0.27 0.26 0.23 0.18 0.19 0.19 0.17 0.17 0.23 0.23 0.22 0.22 0.22 0.22 0.22 0.21 0.19 0.22 0.21 0.20 0.18 0.15 0.15 0.19 0.22 0.31 0.29 0.33 0.35 0.39 0.43 0.47 0.51 0.55 0.58 0.56 0.50 0.54
0.54 0.54 0.55 0.55 0.51 0.49 0.39 0.40 0.42 0.39 0.45 0.49 0.54 0.55 0.56 0.53 0.55 0.50 0.30 0.17 0.13 0.28 0.21 0.26 0.27 0.43 0.30 0.36 0.35 0.26 0.25 0.29 0.24 0.28 0.33 0.34 0.33 0.28 0.24 0.21 0.19 0.20 0.23 0.26 0.17 0.21 0.27 0.26 0.26 0.25 0.25 0.24 0.23 0.23 0.22 0.24 0.19 0.19 0.22 0.22 0.20 0.21 0.21 0.21 0.21 0.20 0.21 0.19 0.17 0.18 0.20 0.15 0.15 0.18 0.32 0.32 0.27 0.33 0.37 0.42 0.46 0.51 0.58 0.62 0.64 0.65 0.65 0.67
0.54 0.54 0.55 0.53 0.50 0.48 0.47 0.44 0.46 0.44 0.50 0.58 0.58 0.56 0.53 0.56 0.47 0.35 0.30 0.15 0.30 0.26 0.38 0.28 0.40 0.37 0.29 0.32 0.29 0.26 0.25 0.30 0.18 0.24 0.31 0.34 0.36 0.31 0.22 0.23 0.23 0.24 0.26 0.25 0.18 0.23 0.27 0.28 0.28 0.28 0.26 0.23 0.26 0.27 0.25 0.26 0.21 0.22 0.23 0.23 0.22 0.22 0.19 0.19 0.19 0.20 0.20 0.17 0.15 0.17 0.18 0.13 0.14 0.22 0.29 0.39 0.34 0.35 0.43 0.48 0.53 0.58 0.64 0.70 0.71 0.73 0.75 0.78
0.54 0.53 0.54 0.51 0.46 0.41 0.42 0.50 0.48 0.53 0.61 0.62 0.59 0.54 0.54 0.47 0.42 0.30 0.20 0.14 0.32 0.24 0.29 0.35 0.29 0.27 0.30 0.27 0.25 0.22 0.24 0.26 0.24 0.26 0.29 0.28 0.31 0.35 0.32 0.31 0.26 0.25 0.25 0.27 0.24 0.25 0.28 0.31 0.30 0.29 0.27 0.28 0.28 0.28 0.27 0.26 0.24 0.27 0.24 0.21 0.19 0.19 0.18 0.18 0.17 0.19 0.18 0.15 0.15 0.17 0.17 0.15 0.12 0.25 0.32 0.30 0.36 0.46 0.50 0.56 0.61 0.66 0.69 0.72 0.74 0.76 0.79 0.84
0.53 0.53 0.52 0.50 0.37 0.39 0.40 0.32 0.44 0.61 0.65 0.61 0.60 0.50 0.43 0.42 0.29 0.22 0.15 0.17 0.31 0.33 0.32 0.32 0.25 0.31 0.25 0.23 0.21 0.22 0.25 0.26 0.25 0.25 0.25 0.29 0.30 0.32 0.31 0.27 0.30 0.26 0.25 0.24 0.22 0.24 0.26 0.27 0.25 0.26 0.29 0.31 0.30 0.27 0.28 0.28 0.27 0.24 0.20 0.18 0.17 0.16 0.18 0.17 0.16 0.17 0.13 0.13 0.16 0.16 0.15 0.15 0.10 0.29 0.41 0.49 0.58 0.59 0.57 0.54 0.59 0.66 0.71 0.73 0.75 0.79 0.82 0.85
0.52 0.51 0.50 0.45 0.43 0.45 0.31 0.27 0.52 0.65 0.63 0.62 0.59 0.41 0.36 0.24 0.29 0.19 0.17 0.34 0.24 0.31 0.29 0.29 0.29 0.26 0.25 0.26 0.24 0.22 0.24 0.26 0.26 0.24 0.23 0.23 0.26 0.25 0.25 0.22 0.23 0.19 0.18 0.19 0.17 0.24 0.22 0.23 0.26 0.26 0.32 0.30 0.28 0.25 0.25 0.25 0.24 0.21 0.19 0.17 0.14 0.14 0.14 0.13 0.14 0.12 0.12 0.11 0.15 0.17 0.17 0.14 0.17 0.37 0.48 0.54 0.59 0.62 0.62 0.62 0.63 0.65 0.69 0.74 0.75 0.79 0.84 0.88
0.51 0.49 0.47 0.44 0.43 0.37 0.35 0.42 0.57 0.57 0.61 0.60 0.43 0.38 0.29 0.22 0.16 0.21 0.23 0.28 0.25 0.36 0.31 0.34 0.30 0.29 0.28 0.26 0.24 0.23 0.28 0.23 0.25 0.25 0.26 0.26 0.26 0.25 0.26 0.24 0.26 0.22 0.17 0.19 0.18 0.19 0.21 0.25 0.25 0.25 0.29 0.32 0.30 0.23 0.23 0.23 0.23 0.20 0.18 0.16 0.14 0.13 0.13 0.11 0.13 0.14 0.14 0.15 0.17 0.15 0.17 0.13 0.33 0.41 0.54 0.55 0.61 0.66 0.67 0.70 0.72 0.70 0.69 0.71 0.75 0.78 0.80 0.83
0.49 0.47 0.39 0.39 0.40 0.39 0.37 0.45 0.52 0.52 0.52 0.49 0.33 0.29 0.32 0.18 0.17 0.30 0.24 0.28 0.29 0.35 0.35 0.31 0.31 0.32 0.30 0.24 0.23 0.24 0.24 0.28 0.26 0.24 0.26 0.24 0.25 0.23 0.22 0.25 0.27 0.24 0.23 0.23 0.17 0.18 0.16 0.17 0.21 0.24 0.23 0.31 0.28 0.26 0.26 0.25 0.23 0.21 0.22 0.19 0.16 0.15 0.14 0.11 0.12 0.10 0.10 0.12 0.14 0.19 0.14 0.15 0.19 0.34 0.60 0.67 0.69 0.71 0.74 0.75 0.77 0.76 0.75 0.76 0.78 0.79 0.80 0.82
0.47 0.43 0.41 0.38 0.38 0.39 0.38 0.45 0.47 0.50 0.50 0.37 0.29 0.29 0.18 0.17 0.27 0.23 0.23 0.26 0.30 0.32 0.31 0.36 0.31 0.28 0.28 0.28 0.24 0.25 0.27 0.24 0.26 0.23 0.22 0.21 0.19 0.22 0.20 0.19 0.24 0.25 0.25 0.20 0.21 0.20 0.18 0.19 0.24 0.26 0.27 0.30 0.27 0.28 0.29 0.26 0.24 0.24 0.24 0.23 0.19 0.16 0.19 0.14 0.16 0.14 0.13 0.15 0.15 0.18 0.19 0.31 0.31 0.56 0.68 0.73 0.74 0.73 0.76 0.77 0.78 0.75 0.76 0.77 0.76 0.77 0.80 0.84
0.42 0.37 0.40 0.33 0.34 0.35 0.42 0.47 0.50 0.51 0.43 0.32 0.27 0.25 0.20 0.25 0.23 0.31 0.28 0.32 0.27 0.24 0.26 0.31 0.31 0.25 0.25 0.23 0.26 0.28 0.33 0.30 0.25 0.23 0.22 0.21 0.23 0.21 0.24 0.21 0.20 0.23 0.23 0.19 0.22 0.18 0.19 0.19 0.26 0.28 0.28 0.27 0.27 0.29 0.28 0.28 0.18 0.23 0.22 0.18 0.19 0.24 0.20 0.17 0.17 0.19 0.18 0.17 0.15 0.29 0.29 0.36 0.49 0.54 0.64 0.69 0.69 0.69 0.73 0.75 0.77 0.75 0.75 0.75 0.73 0.77 0.79 0.83
0.36 0.36 0.27 0.33 0.36 0.46 0.46 0.48 0.52 0.50 0.42 0.33 0.28 0.22 0.31 0.29 0.35 0.33 0.35 0.29 0.25 0.24 0.23 0.24 0.26 0.25 0.24 0.23 0.25 0.26 0.28 0.31 0.28 0.24 0.21 0.25 0.23 0.25 0.23 0.23 0.23 0.22 0.25 0.23 0.22 0.25 0.20 0.21 0.28 0.27 0.25 0.29 0.31 0.30 0.30 0.30 0.28 0.24 0.21 0.21 0.25 0.28 0.26 0.20 0.14 0.16 0.14 0.14 0.15 0.22 0.22 0.29 0.29 0.27 0.55 0.58 0.58 0.62 0.66 0.69 0.73 0.74 0.74 0.71 0.71 0.73 0.76 0.79
0.36 0.34 0.33 0.32 0.40 0.51 0.45 0.46 0.53 0.47 0.38 0.33 0.27 0.32 0.38 0.32 0.37 0.37 0.36 0.28 0.25 0.25 0.24 0.24 0.24 0.25 0.23 0.24 0.23 0.25 0.28 0.26 0.27 0.27 0.24 0.26 0.24 0.35 0.29 0.26 0.32 0.32 0.27 0.26 0.24 0.24 0.25 0.19 0.24 0.27 0.29 0.31 0.31 0.30 0.29 0.31 0.30 0.26 0.24 0.28 0.21 0.18 0.17 0.21 0.17 0.13 0.14 0.13 0.15 0.22 0.31 0.30 0.33 0.33 0.46 0.50 0.54 0.59 0.62 0.66 0.66 0.65 0.67 0.69 0.70 0.72 0.74 0.77
0.39 0.38 0.31 0.39 0.49 0.50 0.39 0.49 0.50 0.38 0.34 0.28 0.30 0.27 0.34 0.35 0.40 0.35 0.33 0.28 0.25 0.25 0.22 0.22 0.23 0.23 0.24 0.20 0.21 0.22 0.26 0.24 0.28 0.27 0.24 0.27 0.26 0.35 0.35 0.36 0.32 0.35 0.30 0.28 0.24 0.27 0.27 0.20 0.22 0.29 0.29 0.31 0.31 0.29 0.23 0.26 0.30 0.30 0.29 0.26 0.28 0.24 0.22 0.20 0.18 0.18 0.16 0.15 0.15 0.20 0.27 0.26 0.40 0.43 0.50 0.51 0.56 0.58 0.60 0.61 0.62 0.63 0.63 0.66 0.67 0.69 0.70 0.71
0.40 0.48 0.46 0.63 0.63 0.47 0.40 0.51 0.40 0.36 0.29 0.24 0.28 0.28 0.39 0.31 0.33 0.33 0.31 0.28 0.24 0.23 0.22 0.22 0.22 0.21 0.22 0.24 0.22 0.21 0.27 0.28 0.26 0.29 0.29 0.33 0.31 0.44 0.40 0.42 0.37 0.34 0.37 0.34 0.29 0.32 0.25 0.28 0.20 0.27 0.32 0.31 0.28 0.32 0.27 0.27 0.25 0.25 0.25 0.26 0.26 0.25 0.30 0.26 0.27 0.20 0.17 0.16 0.16 0.18 0.20 0.30 0.43 0.58 0.55 0.55 0.58 0.60 0.61 0.60 0.62 0.62 0.62 0.64 0.68 0.69 0.70 0.71
0.57 0.54 0.52 0.76 0.70 0.51 0.46 0.41 0.29 0.26 0.26 0.32 0.33 0.29 0.30 0.33 0.34 0.34 0.33 0.29 0.26 0.26 0.25 0.23 0.22 0.22 0.23 0.24 0.22 0.26 0.25 0.29 0.31 0.32 0.33 0.35 0.35 0.30 0.42 0.43 0.43 0.37 0.39 0.34 0.30 0.32 0.26 0.26 0.22 0.28 0.26 0.29 0.35 0.41 0.37 0.34 0.33 0.32 0.28 0.28 0.31 0.25 0.23 0.19 0.21 0.30 0.27 0.20 0.18 0.18 0.18 0.31 0.50 0.65 0.62 0.59 0.63 0.64 0.66 0.65 0.63 0.63 0.63 0.64 0.67 0.71 0.73 0.73
0.53 0.42 0.49 0.79 0.70 0.56 0.34 0.25 0.27 0.34 0.30 0.25 0.23 0.27 0.28 0.36 0.33 0.32 0.28 0.26 0.27 0.24 0.27 0.25 0.25 0.25 0.25 0.26 0.27 0.29 0.30 0.32 0.35 0.35 0.37 0.33 0.40 0.40 0.44 0.50 0.46 0.45 0.37 0.31 0.31 0.37 0.33 0.30 0.25 0.24 0.28 0.32 0.39 0.46 0.47 0.46 0.46 0.43 0.40 0.36 0.38 0.33 0.29 0.24 0.18 0.23 0.28 0.28 0.29 0.26 0.23 0.32 0.57 0.66 0.65 0.64 0.64 0.65 0.66 0.66 0.62 0.62 0.63 0.64 0.67 0.71 0.74 0.75
0.53 0.48 0.71 0.78 0.73 0.59 0.31 0.23 0.29 0.28 0.23 0.23 0.30 0.34 0.36 0.35 0.32 0.31 0.27 0.24 0.23 0.26 0.24 0.23 0.24 0.24 0.26 0.27 0.27 0.30 0.33 0.33 0.36 0.34 0.39 0.38 0.41 0.45 0.50 0.50 0.51 0.47 0.43 0.39 0.40 0.39 0.39 0.27 0.23 0.26 0.30 0.38 0.43 0.48 0.47 0.47 0.43 0.37 0.39 0.43 0.40 0.33 0.33 0.30 0.27 0.31 0.26 0.28 0.24 0.25 0.21 0.32 0.56 0.67 0.65 0.65 0.66 0.67 0.67 0.67 0.64 0.62 0.62 0.65 0.66 0.70 0.72 0.73
0.56 0.56 0.58 0.75 0.72 0.58 0.28 0.19 0.20 0.19 0.18 0.23 0.29 0.35 0.40 0.39 0.32 0.30 0.27 0.25 0.24 0.23 0.22 0.23 0.24 0.27 0.26 0.29 0.28 0.28 0.31 0.27 0.34 0.34 0.35 0.40 0.39 0.50 0.53 0.51 0.51 0.46 0.45 0.43 0.37 0.43 0.28 0.31 0.26 0.22 0.22 0.26 0.33 0.38 0.40 0.45 0.44 0.40 0.41 0.45 0.45 0.43 0.41 0.39 0.36 0.36 0.26 0.29 0.28 0.24 0.19 0.32 0.52 0.63 0.65 0.65 0.65 0.64 0.65 0.67 0.65 0.61 0.62 0.63 0.66 0.69 0.71 0.73
0.59 0.62 0.60 0.62 0.66 0.49 0.25 0.35 0.35 0.28 0.27 0.28 0.37 0.37 0.35 0.32 0.32 0.32 0.30 0.26 0.28 0.25 0.23 0.23 0.26 0.26 0.27 0.30 0.30 0.31 0.33 0.31 0.28 0.34 0.35 0.36 0.38 0.49 0.48 0.49 0.52 0.48 0.52 0.55 0.49 0.53 0.35 0.34 0.27 0.20 0.18 0.17 0.19 0.23 0.27 0.31 0.35 0.40 0.45 0.46 0.46 0.43 0.40 0.35 0.28 0.29 0.23 0.31 0.30 0.25 0.28 0.42 0.54 0.59 0.59 0.59 0.60 0.61 0.65 0.65 0.66 0.65 0.63 0.62 0.65 0.68 0.70 0.71
0.54 0.38 0.50 0.53 0.52 0.40 0.36 0.42 0.40 0.37 0.34 0.40 0.37 0.36 0.34 0.28 0.30 0.33 0.32 0.27 0.30 0.29 0.26 0.25 0.26 0.26 0.26 0.27 0.28 0.28 0.30 0.34 0.32 0.31 0.32 0.34 0.37 0.42 0.47 0.47 0.50 0.50 0.54 0.53 0.52 0.49 0.41 0.42 0.36 0.29 0.25 0.24 0.29 0.34 0.42 0.44 0.41 0.35 0.41 0.42 0.44 0.47 0.46 0.41 0.37 0.30 0.25 0.31 0.28 0.33 0.34 0.37 0.42 0.48 0.50 0.54 0.57 0.57 0.60 0.62 0.62 0.64 0.65 0.65 0.65 0.66 0.68 0.68
0.60 0.44 0.42 0.34 0.40 0.36 0.37 0.44 0.39 0.43 0.41 0.45 0.33 0.33 0.29 0.30 0.29 0.30 0.32 0.23 0.27 0.28 0.26 0.25 0.25 0.23 0.24 0.24 0.26 0.27 0.30 0.30 0.33 0.33 0.35 0.35 0.37 0.39 0.44 0.44 0.46 0.49 0.50 0.49 0.54 0.48 0.41 0.36 0.38 0.37 0.35 0.36 0.40 0.39 0.42 0.43 0.39 0.42 0.41 0.43 0.47 0.46 0.46 0.41 0.35 0.31 0.39 0.32 0.27 0.40 0.45 0.37 0.40 0.45 0.49 0.52 0.55 0.57 0.59 0.60 0.62 0.64 0.67 0.67 0.64 0.64 0.65 0.65
0.45 0.49 0.51 0.48 0.28 0.23 0.29 0.31 0.38 0.43 0.47 0.45 0.37 0.35 0.31 0.27 0.25 0.25 0.27 0.26 0.26 0.27 0.22 0.22 0.24 0.25 0.25 0.24 0.24 0.24 0.27 0.29 0.29 0.29 0.35 0.36 0.36 0.36 0.33 0.39 0.39 0.47 0.49 0.48 0.55 0.46 0.40 0.35 0.43 0.41 0.40 0.45 0.46 0.45 0.46 0.44 0.43 0.44 0.44 0.46 0.46 0.48 0.47 0.41 0.42 0.44 0.43 0.33 0.30 0.42 0.46 0.40 0.42 0.47 0.51 0.53 0.55 0.56 0.58 0.60 0.63 0.66 0.67 0.68 0.67 0.63 0.62 0.63
0.60 0.53 0.50 0.48 0.34 0.36 0.38 0.37 0.43 0.45 0.43 0.42 0.37 0.33 0.30 0.28 0.24 0.25 0.25 0.23 0.26 0.25 0.25 0.19 0.22 0.23 0.25 0.25 0.24 0.24 0.26 0.24 0.25 0.30 0.30 0.31 0.31 0.31 0.29 0.33 0.38 0.43 0.44 0.44 0.47 0.51 0.42 0.38 0.43 0.43 0.40 0.45 0.46 0.45 0.47 0.43 0.43 0.43 0.44 0.46 0.48 0.48 0.47 0.47 0.47 0.49 0.47 0.42 0.45 0.44 0.44 0.43 0.47 0.50 0.54 0.57 0.62 0.62 0.62 0.64 0.65 0.64 0.64 0.64 0.63 0.62 0.63 0.64
0.48 0.44 0.36 0.45 0.46 0.42 0.41 0.39 0.42 0.42 0.36 0.39 0.35 0.33 0.33 0.30 0.27 0.27 0.27 0.24 0.22 0.24 0.29 0.25 0.24 0.25 0.26 0.26 0.26 0.25 0.28 0.29 0.29 0.26 0.30 0.30 0.29 0.31 0.28 0.29 0.30 0.36 0.40 0.38 0.42 0.45 0.38 0.37 0.44 0.43 0.39 0.40 0.45 0.46 0.47 0.45 0.44 0.41 0.46 0.48 0.49 0.50 0.49 0.50 0.48 0.49 0.49 0.47 0.47 0.46 0.44 0.42 0.51 0.56 0.56 0.62 0.64 0.64 0.62 0.60 0.60 0.60 0.60 0.60 0.59 0.59 0.62 0.61
0.60 0.63 0.56 0.45 0.37 0.41 0.41 0.39 0.37 0.36 0.34 0.34 0.33 0.32 0.33 0.31 0.29 0.28 0.27 0.29 0.26 0.24 0.28 0.27 0.28 0.28 0.28 0.25 0.24 0.24 0.29 0.29 0.30 0.29 0.30 0.29 0.25 0.29 0.27 0.25 0.33 0.31 0.34 0.34 0.36 0.40 0.38 0.35 0.41 0.39 0.31 0.35 0.42 0.41 0.43 0.44 0.43 0.42 0.42 0.44 0.44 0.43 0.41 0.46 0.44 0.49 0.46 0.43 0.46 0.46 0.42 0.41 0.50 0.57 0.59 0.60 0.60 0.59 0.57 0.57 0.57 0.59 0.60 0.60 0.60 0.62 0.62 0.61
0.74 0.75 0.75 0.60 0.44 0.49 0.43 0.44 0.41 0.38 0.31 0.33 0.34 0.32 0.32 0.31 0.31 0.28 0.24 0.28 0.29 0.30 0.31 0.31 0.31 0.29 0.27 0.25 0.24 0.26 0.30 0.31 0.30 0.32 0.33 0.33 0.32 0.30 0.30 0.33 0.34 0.30 0.29 0.32 0.38 0.34 0.36 0.35 0.33 0.34 0.28 0.31 0.39 0.41 0.40 0.40 0.39 0.34 0.37 0.42 0.44 0.45 0.47 0.48 0.50 0.51 0.50 0.51 0.45 0.42 0.41 0.51 0.55 0.58 0.55 0.55 0.57 0.57 0.57 0.58 0.57 0.57 0.58 0.60 0.59 0.60 0.60 0.63
Wind_Speed
26 26 25 25 25 25 25 24 24 24 23 23 23 23 23 24 24 24 24 25 25 25 24 24 24 24 24 23 23 23 23 23 23 23 23 24 23 22 22 21 21 22 21 19 18 18 17 17 18 17 16 15 15 15 15 16 15 13 12 13 14 14 12 11 10 9 9 11 11 10 8 8 9 9 8 7 7 7 8 9 10 11 11 10 10 9 11 12
27 27 26 26 26 26 26 25 25 25 24 24 24 24 24 24 24 24 24 25 25 25 25 25 24 24 24 24 23 23 23 24 24 24 25 25 24 24 24 23 21 21 21 20 20 19 18 18 18 18 16 16 15 15 15 15 15 14 12 14 15 14 12 11 11 11 11 11 12 11 10 9 10 11 10 10 11 9 8 9 9 9 9 10 9 9 11 11
28 28 27 27 27 27 27 26 26 26 25 25 25 24 24 24 24 24 24 25 25 26 25 25 25 24 24 24 23 23 23 23 23 24 25 25 26 26 25 24 22 21 21 20 21 20 19 19 18 18 17 16 16 16 16 15 15 14 14 15 16 14 13 12 12 13 12 11 11 12 12 10 12 12 10 11 12 10 10 11 9 9 9 9 9 10 11 11
29 28 28 28 28 27 27 27 27 27 26 26 25 25 25 25 25 25 25 25 25 25 26 25 25 25 24 24 23 23 22 22 22 23 23 23 24 26 25 24 23 22 21 20 20 21 20 18 18 18 17 16 17 17 16 16 15 14 15 16 15 14 13 13 13 13 13 11 11 12 11 11 12 12 10 11 11 12 13 13 12 11 10 10 10 11 11 11
29 29 29 29 28 28 28 28 28 28 27 27 26 26 25 25 25 25 25 25 25 25 26 26 25 25 25 24 24 22 21 20 21 21 20 20 22 24 24 24 23 23 21 20 21 20 20 19 18 18 18 17 17 16 16 18 16 14 16 16 16 15 14 15 14 14 13 11 11 12 12 13 13 13 13 12 12 15 16 15 14 13 12 11 10 11 11 12
30 29 29 29 29 29 29 29 29 28 28 27 27 26 26 26 25 25 25 25 25 25 25 26 25 25 24 24 23 22 21 21 20 19 20 19 20 22 23 23 23 22 21 21 21 20 20 19 19 18 18 18 17 16 17 18 17 16 16 16 17 16 15 15 13 13 13 11 12 13 14 14 13 15 16 14 14 16 16 15 15 13 12 11 11 12 12 12
30 30 30 30 30 29 29 29 29 29 28 28 27 27 26 26 26 25 25 25 25 25 25 25 25 25 24 24 23 22 22 23 21 20 20 19 20 21 22 22 22 22 22 22 22 21 20 20 20 19 18 18 18 17 18 17 17 18 17 16 18 18 17 16 14 14 13 12 14 14 15 15 14 15 16 15 16 16 15 15 14 13 12 11 11 12 13 13
30 30 30 30 30 30 29 29 29 29 28 28 28 27 27 26 26 26 25 25 25 25 25 25 25 25 23 23 23 22 23 24 23 21 21 20 20 20 21 21 22 22 22 23 23 21 20 20 21 20 18 18 17 17 17 16 16 18 18 17 17 18 18 18 16 15 14 14 14 14 15 17 17 16 16 17 15 14 14 14 13 13 12 12 12 13 13 13
31 30 30 30 30 30 29 29 29 29 28 28 28 27 27 26 26 26 25 25 25 25 25 25 25 25 23 23 22 22 23 24 23 22 21 21 21 21 21 21 22 23 23 24 23 21 20 19 20 19 18 18 18 17 16 15 16 18 18 18 17 17 18 17 16 15 15 15 14 13 14 16 16 15 15 16 15 14 13 13 13 13 12 12 12 13 12 13
31 30 30 30 30 29 29 29 29 28 28 28 27 27 27 26 26 25 25 25 25 25 25 25 25 24 24 23 21 21 23 22 22 22 22 21 21 21 21 21 22 23 23 23 23 22 20 19 19 18 18 19 18 18 17 16 16 17 18 18 18 18 18 17 15 15 15 15 14 13 14 15 14 13 14 15 14 14 13 13 14 14 13 12 13 13 12 12
30 30 30 30 29 29 29 29 28 28 28 28 27 27 26 26 26 25 25 25 25 24 24 25 24 24 24 23 22 22 22 21 21 22 22 21 21 21 21 21 22 23 23 23 23 22 20 19 19 18 18 18 17 17 17 16 15 16 18 17 18 18 18 17 16 16 14 14 13 12 13 14 13 12 14 14 14 14 14 14 14 14 13 13 12 11 10 11
30 30 29 29 29 29 28 28 28 28 28 27 27 26 26 26 26 25 25 25 25 24 24 25 24 24 24 23 24 24 22 21 21 22 22 22 21 21 21 21 22 23 23 23 23 22 21 20 20 20 19 17 16 16 16 16 15 17 17 16 16 15 16 17 17 16 14 14 13 10 11 13 13 13 14 14 14 14 14 14 14 14 13 12 12 11 10 10
29 29 29 29 28 28 28 28 28 28 27 27 27 26 26 26 25 25 25 25 24 24 24 24 24 24 23 23 24 24 23 22 21 22 23 22 21 21 21 20 21 22 23 23 22 21 21 20 20 21 20 17 16 16 16 16 15 16 16 15 14 13 15 17 16 15 15 14 13 10 11 12 12 13 14 14 14 14 14 14 15 13 13 13 12 11 11 10
29 29 28 28 28 28 28 27 27 27 27 27 26 26 26 26 25 25 25 24 24 24 24 24 24 24 23 23 24 24 24 23 23 22 23 23 21 21 21 21 21 22 23 23 22 21 21 20 19 19 19 17 17 17 16 14 14 15 14 13 13 13 14 14 14 15 14 14 13 11 12 12 11 12 14 14 14 15 14 16 16 14 13 13 13 13 12 11
29 28 28 27 27 27 27 27 27 27 26 26 26 26 26 26 25 25 24 24 24 24 24 23 24 23 22 23 24 23 23 23 23 23 22 23 22 21 22 22 21 22 23 23 22 21 21 19 18 18 18 18 16 15 15 14 14 14 13 12 12 13 12 11 12 14 14 13 12 12 12 11 10 12 14 13 13 15 16 17 17 15 14 13 14 14 13 12
28 28 27 27 27 27 27 26 26 26 26 25 26 26 26 25 25 25 24 24 24 24 23 23 23 22 21 22 23 22 22 22 22 23 22 23 22 21 22 22 21 22 23 22 21 21 21 19 18 18 18 17 16 15 14 14 14 13 13 13 12 14 13 11 11 13 14 13 13 14 12 10 9 11 12 12 12 14 16 17 17 16 15 14 14 13 12 12
27 27 26 26 26 26 26 25 25 25 25 25 25 25 25 25 25 24 24 24 23 23 22 21 21 21 21 21 21 21 22 22 22 22 23 23 22 21 21 21 21 22 22 22 21 21 20 19 19 19 18 17 17 15 14 14 14 13 12 13 13 14 14 13 11 11 13 14 15 16 14 12 10 10 10 11 13 15 16 17 17 16 14 14 14 13 13 13
26 26 26 25 25 25 25 24 24 24 24 24 24 24 24 24 24 24 23 23 23 22 22 21 21 20 21 22 21 20 22 22 22 22 23 23 22 22 22 21 21 21 21 21 20 20 19 18 18 18 18 18 18 16 15 16 15 14 13 13 13 13 14 14 13 11 12 15 16 16 16 14 11 9 10 11 11 12 14 15 16 15 14 14 14 13 13 13
25 25 25 24 24 24 24 23 23 23 23 22 22 22 22 22 22 22 23 24 23 22 21 22 23 20 19 21 21 21 21 22 22 22 23 23 22 23 22 21 21 21 20 19 19 20 19 18 18 19 20 20 19 18 17 16 15 15 14 13 13 14 14 14 14 13 12 14 16 16 16 14 10 9 11 11 8 8 10 13 14 14 14 14 14 14 13 13
24 24 24 24 23 23 23 22 22 22 21 21 20 20 21 21 21 21 23 25 25 23 21 22 24 22 19 18 19 20 21 22 23 23 23 23 22 23 22 20 20 20 20 19 19 19 19 19 19 20 20 20 20 19 18 18 16 15 14 13 14 14 14 13 13 14 13 14 16 16 16 15 12 10 11 11 7 6 8 11 12 13 14 15 15 14 13 13
24 23 22 22 22 22 22 21 21 21 20 20 20 20 21 21 21 20 22 24 25 25 23 22 23 23 22 19 19 18 18 20 23 23 23 24 23 22 21 20 19 19 19 19 18 18 19 20 20 20 19 19 20 20 19 18 17 16 15 14 14 14 14 13 13 13 12 14 16 15 14 14 13 11 10 10 8 8 10 11 13 15 15 16 16 15 14 13
22 22 21 21 21 21 20 20 20 20 20 20 20 21 22 21 20 19 19 21 22 24 24 23 23 23 23 23 22 20 18 20 22 23 23 24 23 22 21 20 19 18 18 18 17 17 18 19 20 19 18 19 19 19 19 18 17 17 15 14 15 14 13 12 11 9 8 12 14 14 13 14 14 12 10 10 9 11 12 13 15 16 16 17 17 17 15 14
21 20 20 20 19 19 19 19 20 20 20 21 21 22 21 20 19 17 18 19 20 22 23 22 22 22 24 23 22 21 20 20 21 22 23 24 23 22 21 20 19 19 18 19 18 17 16 18 19 19 18 18 19 19 18 18 17 17 16 14 14 14 11 11 11 8 7 10 12 12 13 13 13 12 11 11 10 10 12 14 14 16 17 18 18 17 16 16
19 19 18 18 18 18 18 18 19 19 20 21 22 23 21 20 19 17 17 18 19 20 21 22 21 21 24 23 20 20 20 20 20 21 23 23 22 21 21 20 19 19 19 19 19 17 16 16 16 17 17 18 18 18 18 17 17 17 16 15 15 14 13 12 11 9 9 9 9 9 10 12 12 11 11 11 10 10 10 10 10 13 15 16 16 15 14 15
17 18 17 17 17 17 18 18 19 19 20 21 22 21 20 19 19 17 16 17 17 18 19 20 19 20 24 23 20 20 19 20 20 21 23 23 22 20 19 19 19 19 20 19 18 18 17 15 14 15 16 17 17 18 18 18 17 16 16 16 16 15 14 13 11 9 9 9 9 8 8 11 12 11 12 10 8 8 8 7 9 11 12 13 15 15 15 14
17 17 17 16 16 16 17 18 19 19 20 21 20 19 18 18 18 18 17 15 15 17 17 19 18 19 23 22 20 20 19 19 19 21 23 23 22 21 19 19 18 19 19 18 17 17 17 16 15 16 16 16 17 18 18 18 16 16 16 16 16 15 14 13 11 10 10 11 10 9 9 10 11 11 11 9 7 7 7 8 9 10 12 13 14 16 17 16
16 17 16 16 16 16 17 18 18 19 20 20 18 18 17 17 17 18 17 13 14 17 16 17 18 18 22 22 20 20 18 18 19 21 23 23 21 21 19 19 18 18 19 17 17 18 18 17 17 16 16 17 17 18 18 17 15 15 16 15 14 15 15 14 13 12 13 12 10 10 9 9 10 11 10 8 7 8 8 9 10 11 12 13 13 14 15 15
15 16 16 16 15 16 18 19 19 20 21 19 17 17 16 16 17 17 16 13 13 15 15 16 17 17 20 22 22 20 16 17 18 20 23 23 21 20 19 19 18 18 18 18 18 17 16 17 17 16 16 16 17 18 18 16 15 16 16 16 16 16 16 15 14 14 14 12 11 12 10 9 11 12 11 10 8 9 9 10 10 10 11 11 11 11 10 11
15 15 16 15 16 17 18 19 20 20 20 18 16 17 16 17 17 16 15 13 13 14 14 16 17 17 19 20 21 21 17 15 16 19 22 23 22 20 18 19 18 17 18 19 19 17 16 17 16 15 16 16 17 17 17 16 15 15 14 14 15 15 15 14 14 14 13 12 13 14 11 10 12 13 12 10 9 9 10 10 10 10 9 9 8 8 8 9
15 15 15 15 16 18 18 19 21 20 19 17 16 17 17 17 17 16 14 13 13 13 13 15 16 17 19 19 19 20 18 14 15 18 21 21 21 19 17 18 19 17 17 18 19 18 18 17 16 16 16 16 16 15 16 17 14 12 12 12 12 12 13 12 13 13 12 13 15 15 12 11 12 13 12 10 10 10 10 10 10 9 8 8 8 8 8 8
15 15 15 16 17 18 18 19 20 20 18 16 16 17 18 18 17 15 14 13 12 12 14 15 16 17 18 18 18 19 18 15 15 18 19 19 19 19 17 18 19 17 16 17 17 17 16 16 16 16 16 15 14 13 14 14 12 11 11 12 12 13 12 11 12 11 11 13 15 14 12 10 11 12 11 10 9 9 10 10 10 9 9 9 8 9 9 9
14 14 15 17 18 19 20 20 20 19 17 16 17 19 19 17 16 15 13 12 11 13 15 15 16 17 18 17 17 17 17 16 16 17 18 17 17 19 18 19 19 17 16 16 16 15 15 17 16 15 15 14 13 13 13 12 11 11 11 12 12 11 11 12 12 11 11 13 13 13 11 10 10 11 10 9 9 9 9 9 9 8 9 9 9 9 10 9
13 14 15 17 18 20 21 21 20 19 17 17 18 19 18 16 15 15 14 12 11 11 13 14 15 17 17 16 16 17 17 16 16 16 17 16 16 18 18 18 18 17 16 16 15 14 14 15 16 14 14 14 14 13 12 12 12 13 13 13 13 11 10 12 12 10 11 12 12 12 10 10 10 9 9 8 8 8 8 7 8 8 8 9 9 9 9 10
13 14 15 17 18 20 21 22 21 19 18 18 19 19 17 15 14 15 15 13 10 10 11 13 14 16 17 15 15 17 16 15 15 16 16 16 15 17 17 18 18 17 15 15 14 15 15 14 16 15 14 14 14 13 14 13 12 14 14 13 14 14 12 12 11 11 11 11 12 11 10 11 10 9 9 8 7 7 7 7 7 7 8 8 8 9 10 10
12 14 15 16 18 20 22 23 22 20 19 19 19 18 17 15 13 14 14 12 10 9 11 14 15 15 16 15 15 17 16 13 14 16 16 16 15 16 16 17 18 17 16 15 14 15 15 15 16 15 14 13 13 14 13 11 12 15 14 12 14 15 13 12 11 12 11 10 10 10 10 10 10 10 9 7 7 7 6 7 7 7 7 7 8 9 10 11
12 13 15 17 18 20 22 23 23 22 21 20 19 17 16 15 15 14 11 10 8 8 12 16 16 15 15 15 15 16 15 13 14 15 15 15 14 13 14 15 16 17 17 16 14 14 14 14 14 13 13 14 14 14 13 12 13 15 14 13 14 13 12 12 12 12 10 10 11 10 10 10 10 10 9 8 8 8 7 8 7 7 7 7 8 9 10 11
12 13 15 17 18 20 22 24 24 23 21 19 18 17 15 15 15 12 10 9 7 7 13 17 16 15 16 15 15 16 15 13 14 14 14 14 13 12 13 13 13 16 18 17 15 14 13 13 13 13 14 14 14 13 13 12 13 13 14 14 14 13 12 11 11 11 10 11 12 10 10 11 11 11 11 10 9 9 9 9 8 8 7 8 9 9 10 10
12 13 15 17 19 20 23 25 24 22 19 18 17 16 16 15 13 10 10 8 6 8 13 15 14 14 14 14 15 16 17 15 15 15 14 13 13 12 13 13 13 14 18 19 16 14 13 13 13 13 13 12 12 12 12 12 12 12 13 13 12 13 13 12 11 11 11 11 11 9 9 11 11 11 11 10 9 9 9 9 9 8 8 9 10 10 10 11
13 14 15 17 19 21 23 24 23 20 18 17 18 17 16 14 12 10 10 8 8 11 13 12 12 12 12 12 13 15 18 17 16 15 14 13 13 12 12 13 13 12 13 17 17 14 13 12 12 12 12 10 10 11 14 13 12 12 12 12 12 13 13 12 12 11 11 11 11 10 10 11 11 11 11 10 9 9 9 9 9 8 8 9 10 10 11 11
15 15 15 18 20 21 23 23 20 18 17 18 19 17 14 13 11 10 10 9 9 11 12 11 11 11 10 11 11 13 16 17 16 15 13 13 13 13 12 11 13 12 11 13 15 14 13 13 12 11 11 10 8 10 13 14 14 13 13 13 13 12 12 12 11 11 11 11 11 10 11 12 12 11 10 9 9 9 8 9 9 8 8 8 9 9 10 10
16 15 16 18 21 21 22 20 17 17 17 18 19 16 12 11 10 9 9 10 10 11 12 12 11 10 10 9 9 11 14 15 15 14 13 12 12 13 13 11 12 13 12 10 12 14 14 14 13 10 9 9 9 8 9 11 12 13 13 14 13 13 12 11 11 11 11 11 11 11 11 12 11 10 10 9 8 8 8 8 7 7 8 8 9 8 8 8
16 16 17 20 21 21 20 17 16 18 18 18 17 15 12 10 10 10 10 10 11 11 12 12 12 11 10 8 8 10 13 13 12 12 12 12 12 12 13 12 11 12 12 11 12 14 15 15 13 11 10 10 9 9 8 9 10 10 11 11 12 13 12 12 12 12 10 10 11 10 10 12 11 10 10 8 8 7 7 8 7 7 8 8 9 8 7 7
16 16 17 20 21 20 18 16 17 18 18 17 15 13 12 11 10 10 10 10 11 11 12 12 12 11 9 8 8 10 12 11 10 11 12 11 11 11 11 11 10 11 12 12 12 13 13 14 14 13 11 11 11 10 9 9 10 10 10 10 10 12 12 13 13 12 10 10 11 10 10 12 12 10 9 8 7 7 7 8 7 7 7 7 8 7 7 7
16 16 17 19 20 20 18 18 19 19 18 17 15 12 12 12 12 11 10 10 11 12 12 11 11 11 9 8 9 10 11 11 10 10 10 10 10 9 9 9 10 11 12 13 13 13 12 13 13 12 11 12 12 12 11 10 10 11 11 10 10 10 11 12 12 11 10 11 12 10 11 12 11 10 10 8 7 7 7 7 6 6 6 7 7 7 7 7
15 15 16 17 20 20 19 19 20 19 17 16 14 12 12 12 13 11 10 10 10 11 12 12 11 11 10 9 8 8 9 10 10 9 9 9 9 8 8 8 9 11 12 13 13 13 12 13 13 13 13 14 14 14 13 12 11 11 12 10 9 10 11 12 13 12 12 13 12 10 11 12 11 10 10 9 9 8 7 7 6 6 6 6 6 7 7 7
15 16 16 16 19 20 18 17 18 17 16 14 12 12 11 12 12 10 9 9 9 10 12 12 10 10 10 9 9 8 8 8 9 9 8 9 8 8 7 7 8 10 10 11 12 13 13 12 12 13 13 14 15 14 14 13 12 12 11 11 10 10 11 11 12 13 14 13 12 12 13 12 10 10 10 10 10 9 9 8 7 7 7 7 7 6 6 6
16 16 17 17 18 18 17 16 16 16 15 13 12 12 10 10 11 9 8 9 9 9 11 11 10 10 10 10 10 9 8 8 8 8 9 9 9 8 6 7 8 8 9 11 12 14 14 12 11 12 12 12 12 13 13 12 11 11 11 10 10 11 10 10 11 13 13 13 12 13 13 11 11 11 11 10 10 10 10 9 8 7 7 7 7 7 6 6
16 16 16 17 17 17 17 16 16 16 14 13 12 10 9 8 9 9 9 9 8 8 9 10 10 10 11 12 11 10 10 8 8 9 9 10 10 9 6 6 7 7 9 10 11 13 14 13 12 12 11 10 11 11 11 11 10 10 9 9 10 10 10 11 12 13 13 13 13 12 12 11 11 11 11 11 10 9 9 9 8 6 6 7 7 7 7 7
15 16 16 16 17 17 17 16 15 14 13 12 11 9 8 9 9 10 10 9 8 7 8 9 9 8 9 10 11 11 10 10 10 10 10 10 10 9 8 8 8 8 8 10 11 12 13 13 13 12 11 10 11 11 10 9 9 8 8 8 9 9 8 10 11 11 11 12 13 12 11 11 11 11 11 10 9 8 8 7 6 6 6 7 8 7 7 7
16 17 16 15 15 16 15 14 15 13 11 11 10 9 9 9 9 9 9 8 9 7 7 8 8 7 7 8 10 10 10 11 11 10 9 9 9 9 9 9 9 9 9 10 11 12 12 13 13 12 11 11 11 11 10 9 8 8 8 8 8 8 7 8 10 11 11 11 12 12 12 12 11 11 10 9 9 8 7 7 7 7 7 8 8 7 7 8
15 15 15 15 15 14 14 14 14 12 10 10 9 8 9 8 8 9 8 7 9 9 8 8 7 6 6 7 8 9 10 11 11 10 10 10 9 8 9 10 9 9 9 9 11 11 12 13 13 12 12 12 12 12 11 10 9 8 8 8 8 8 8 8 8 9 10 11 12 12 12 12 12 11 10 9 9 8 8 8 8 8 8 8 8 8 8 9
15 15 15 16 15 13 13 13 12 12 11 10 9 9 8 7 7 9 8 6 7 9 10 9 8 7 7 6 7 9 9 9 10 10 10 9 9 8 8 8 8 8 9 10 10 10 12 12 12 12 12 13 14 13 12 11 10 9 10 10 9 9 9 8 8 8 9 10 11 11 11 11 11 11 10 10 9 9 9 9 10 10 9 9 9 9 9 9
Wind_Direction
263 263 263 263 263 263 263 263 263 263 263 263 263 263 262 261 260 258 257 255 254 253 253 252 252 252 251 252 251 251 251 249 247 243 238 237 234 232 230 228 230 226 225 228 227 225 224 226 226 224 226 229 231 233 231 227 225 224 223 223 223 218 218 223 227 239 239 242 250 247 245 242 257 264 252 256 258 258 273 277 272 273 272 262 269 254 231 236
263 263 262 262 262 262 263 263 263 263 263 263 263 263 262 261 260 259 258 256 254 253 252 252 251 251 251 251 251 251 251 248 247 243 239 238 234 231 230 229 229 224 223 226 225 223 223 224 224 222 224 228 230 231 230 227 223 221 222 222 218 214 218 226 233 246 245 242 250 252 250 250 256 256 252 257 257 255 268 276 273 272 268 262 259 241 234 239
263 262 262 261 261 262 262 262 262 262 262 262 262 262 262 261 261 259 258 257 255 253 251 251 251 250 250 250 250 251 249 247 246 241 240 239 233 230 229 227 226 223 223 225 224 222 222 222 220 220 223 227 229 230 230 228 225 221 222 223 218 216 225 235 239 243 243 243 252 257 253 258 262 258 255 252 254 260 259 263 271 268 261 256 250 240 237 242
263 262 261 261 261 261 261 262 262 262 262 262 261 261 261 261 260 259 258 257 255 253 251 250 250 250 249 249 249 248 246 245 243 238 239 237 230 227 225 224 224 223 224 225 223 222 223 222 220 220 222 225 228 229 229 228 227 223 219 219 217 218 228 238 242 244 247 248 249 255 256 261 264 260 255 245 252 268 261 256 262 257 249 247 246 243 241 246
262 261 261 261 261 261 261 261 261 261 261 261 261 261 261 260 260 259 258 257 255 253 251 249 249 249 248 248 247 244 241 241 239 235 235 233 226 223 221 222 222 223 223 223 221 221 223 223 223 225 224 225 225 225 227 227 227 226 222 222 224 225 233 242 246 246 250 254 252 257 258 259 262 260 259 254 253 261 260 258 259 252 246 245 243 244 244 247
262 261 261 261 261 261 261 261 261 261 261 261 261 261 260 260 259 259 257 257 255 253 251 248 248 247 247 247 243 239 235 236 237 233 231 228 222 220 219 220 220 222 221 220 219 219 222 223 225 227 225 224 222 221 224 226 225 225 227 229 231 231 235 242 245 244 246 250 252 253 255 258 262 262 261 259 259 259 257 256 257 253 248 245 244 244 244 246
262 261 261 261 261 261 261 261 261 261 261 260 260 260 259 259 258 258 257 256 255 253 250 247 246 245 246 244 239 236 234 235 236 231 228 226 222 219 219 219 219 219 219 217 217 218 221 224 226 225 224 224 221 220 225 227 224 223 227 230 233 233 234 241 244 243 242 242 246 249 254 258 259 260 261 261 262 258 254 254 254 251 248 246 247 246 246 248
262 261 261 260 261 261 261 261 260 260 260 260 260 259 259 258 257 257 256 255 254 252 249 246 244 243 243 240 236 236 235 235 234 230 227 224 222 220 218 220 219 218 217 216 216 217 222 225 226 223 221 222 219 218 224 230 225 221 226 230 234 236 236 241 243 242 245 244 245 250 256 259 258 257 260 262 259 250 248 251 249 247 247 247 248 249 251 251
261 261 260 260 260 260 260 260 260 260 259 259 259 258 257 257 256 256 255 254 252 250 248 245 243 241 239 237 234 235 235 232 230 227 224 222 222 220 219 220 219 217 216 216 215 217 222 223 223 220 218 221 221 221 225 230 227 221 225 231 234 237 238 241 242 242 246 246 246 253 259 260 257 258 261 258 249 243 245 245 245 246 245 246 250 254 254 251
261 260 260 260 259 260 260 259 259 259 259 258 258 257 256 255 255 254 253 253 251 248 246 243 241 238 236 234 231 232 232 229 226 222 219 220 221 220 221 220 217 216 215 215 214 216 218 219 219 219 219 222 223 224 226 227 228 228 232 236 236 239 242 240 242 244 246 248 250 253 258 258 257 256 259 255 242 238 242 241 244 247 245 247 252 257 256 252
261 260 259 259 259 259 259 259 259 258 258 257 256 255 254 254 253 252 252 251 249 247 243 240 238 234 233 232 228 228 229 225 223 219 217 219 220 220 221 219 215 214 213 212 212 213 214 218 220 220 220 223 225 227 227 227 233 238 238 240 240 242 244 240 239 242 245 251 249 246 255 261 261 255 252 251 240 235 239 241 244 246 247 249 251 257 258 252
261 260 259 259 258 258 258 258 257 257 257 256 255 254 253 252 251 251 250 249 247 244 241 238 235 231 230 231 229 226 224 221 220 219 219 219 220 220 218 216 214 212 209 208 210 212 214 219 221 221 221 222 225 228 229 233 239 241 237 236 240 242 243 241 239 239 242 247 243 246 264 265 259 253 250 249 240 235 239 241 244 246 247 248 249 251 250 249
261 260 258 258 258 257 257 257 256 256 255 254 253 252 251 250 249 249 248 246 244 241 238 234 231 229 227 229 229 225 222 221 222 222 221 219 219 217 215 214 213 211 208 206 209 213 216 221 220 220 222 221 222 227 232 237 238 237 234 231 236 242 243 239 238 240 243 241 235 244 264 263 258 255 252 249 237 233 240 241 244 249 247 245 244 243 244 250
260 259 258 257 256 256 256 255 255 254 253 252 251 250 249 248 247 246 245 243 240 237 234 231 228 226 225 227 228 225 224 224 224 222 218 217 217 214 213 212 211 210 208 209 212 216 220 223 219 218 220 219 222 228 232 233 232 231 233 233 233 236 240 237 235 238 240 239 229 233 254 259 259 257 254 252 238 232 240 243 246 249 244 240 238 239 245 253
259 258 257 256 255 255 254 254 253 252 251 250 249 248 247 246 245 243 241 239 236 233 230 227 225 223 225 228 227 225 224 222 220 218 214 213 214 212 211 211 211 210 210 212 217 219 222 223 218 216 219 220 221 224 227 228 229 227 228 236 234 229 235 240 234 228 231 237 227 225 248 261 261 259 256 255 244 233 238 243 246 246 240 237 237 238 246 255
258 256 255 254 254 253 253 253 252 251 249 248 247 246 245 243 241 239 237 234 231 229 225 223 221 220 223 225 225 225 221 216 214 214 211 210 211 210 209 209 211 212 212 215 219 221 221 220 217 216 217 220 220 219 223 227 230 228 224 230 231 226 233 243 238 228 226 234 231 227 244 265 263 257 257 260 254 237 235 241 240 240 241 239 238 239 246 254
256 255 254 253 253 252 252 251 250 249 247 245 245 244 242 240 236 234 232 228 226 222 219 218 217 218 222 223 224 222 216 213 213 211 209 209 210 208 207 209 211 212 213 215 218 219 219 218 218 218 216 217 218 216 220 225 227 229 226 227 227 224 228 237 243 240 233 233 235 233 242 259 262 255 263 275 268 243 232 237 237 237 241 239 237 240 247 256
255 254 253 252 252 251 250 249 248 246 244 243 242 240 237 234 231 229 225 221 218 216 216 216 214 216 221 220 219 216 212 211 211 208 206 209 209 208 207 208 210 210 211 214 217 216 216 218 217 218 218 217 217 214 215 220 219 220 221 222 229 231 232 237 245 248 243 236 234 233 239 252 263 265 272 282 272 243 227 229 233 235 235 233 236 242 250 257
254 253 252 251 250 249 248 247 245 243 241 239 238 234 229 226 224 222 218 214 213 213 215 215 211 212 215 214 214 214 213 210 209 206 206 208 209 209 209 208 208 208 209 212 216 215 214 217 217 216 219 217 216 214 213 216 214 215 217 221 233 241 240 241 247 250 246 238 232 229 234 245 259 261 270 280 271 243 236 233 231 232 233 237 242 246 252 255
253 252 250 248 247 246 245 243 241 238 236 233 229 225 219 217 217 216 215 214 214 214 215 213 210 213 215 211 210 212 211 208 208 208 207 207 206 208 209 208 206 207 209 208 214 216 212 216 218 217 217 216 216 215 214 216 217 219 224 232 239 242 244 245 252 254 245 234 232 230 231 242 253 251 260 274 268 249 246 245 244 243 242 245 246 248 251 252
250 250 248 246 244 243 241 239 235 232 229 225 221 216 213 213 212 213 213 215 218 219 219 216 211 216 219 216 212 211 209 207 207 208 207 205 204 205 207 207 205 208 209 206 210 215 213 216 219 217 216 216 216 216 215 218 221 225 229 237 241 240 245 251 256 260 246 229 232 232 230 242 251 250 256 265 264 256 246 243 251 253 250 248 247 249 249 249
248 247 245 243 240 239 237 233 229 226 223 219 215 213 212 212 211 212 214 216 219 219 219 216 214 218 220 219 217 214 212 208 205 207 205 202 203 204 205 205 205 207 207 204 209 214 214 219 220 217 214 214 216 216 215 218 221 224 225 231 237 237 245 252 252 258 241 225 231 232 232 245 250 252 264 270 266 263 256 251 248 247 249 249 248 248 245 244
245 243 240 237 235 235 231 228 225 221 217 213 210 209 209 209 210 214 215 215 217 214 213 212 213 217 217 216 214 210 210 206 202 205 202 199 201 201 203 204 204 206 207 206 206 208 214 219 217 214 211 211 216 217 214 217 219 220 221 226 234 234 238 243 242 248 238 228 229 227 235 248 251 259 274 280 282 276 270 267 257 248 248 249 249 248 244 244
242 237 234 232 231 229 226 224 220 213 210 209 207 206 207 209 212 215 214 212 213 210 209 208 208 212 211 208 205 202 205 203 200 202 200 197 197 198 202 203 202 206 209 207 204 207 214 213 205 205 208 208 214 217 211 212 219 223 226 227 229 228 230 233 235 242 245 240 229 223 239 249 251 265 276 284 299 296 285 280 270 262 259 258 260 258 256 255
235 231 229 227 225 223 222 218 210 205 205 205 205 205 208 210 210 209 208 208 209 206 204 203 203 207 204 201 202 201 200 202 201 200 197 196 196 196 201 204 203 207 209 206 204 208 212 207 196 199 207 208 212 216 210 208 218 228 230 226 221 223 231 236 236 237 242 244 236 227 237 249 254 264 272 282 296 296 293 287 279 279 277 274 270 264 260 260
227 225 224 221 221 220 215 206 201 203 204 202 202 204 205 206 203 201 200 201 205 202 197 197 199 201 198 196 199 197 197 203 201 196 195 197 198 197 201 205 205 207 206 203 205 208 208 205 201 203 209 211 213 216 211 209 217 227 230 224 221 225 231 236 236 231 230 233 240 239 231 245 261 267 269 281 292 290 291 287 285 289 290 290 286 275 262 255
223 221 218 218 218 212 205 199 199 201 199 198 201 202 201 200 197 195 193 196 203 199 193 194 196 195 194 194 193 189 195 203 199 197 197 197 198 197 201 205 205 206 203 201 209 210 208 209 208 209 212 216 219 219 214 211 215 225 229 224 224 228 230 233 233 230 229 229 245 255 241 244 261 266 271 282 287 288 292 292 292 294 294 297 299 293 277 262
219 216 214 215 212 206 202 201 200 198 197 199 200 198 198 196 192 189 188 190 193 191 191 194 193 192 193 193 192 192 197 199 197 199 198 197 198 198 202 205 204 204 202 203 210 210 208 211 213 212 216 221 223 219 215 212 217 228 230 226 226 227 227 232 233 231 232 232 242 253 250 251 257 262 274 281 280 282 289 292 293 295 296 297 299 301 293 276
215 211 211 211 207 203 200 198 197 196 197 199 198 196 195 190 186 184 186 189 189 189 190 189 189 190 190 190 193 197 198 194 195 196 194 198 201 200 204 206 203 206 208 208 212 213 212 214 216 215 217 222 222 219 215 213 221 230 228 224 225 223 224 230 230 228 233 234 237 245 248 252 259 266 272 273 274 275 277 282 284 290 295 296 301 304 297 283
210 208 208 206 200 196 195 196 196 194 195 197 196 194 189 183 183 183 186 192 192 190 187 185 187 188 187 188 193 197 197 195 194 191 192 199 202 201 205 204 202 207 214 215 215 217 218 220 223 219 216 218 218 217 213 212 220 226 219 217 220 222 224 228 229 228 233 238 241 246 246 247 259 269 269 264 266 269 269 274 281 290 297 297 301 303 297 288
208 207 204 200 195 193 194 193 190 188 190 194 193 187 181 180 183 183 185 192 192 186 184 185 186 186 185 186 190 195 196 195 195 191 194 201 202 202 205 204 203 207 214 220 217 217 220 222 223 219 215 213 211 215 216 216 218 215 212 213 216 223 225 229 236 232 232 240 245 246 244 246 252 257 262 261 260 263 264 269 276 285 293 296 296 298 298 293
206 205 202 199 196 194 193 188 184 185 187 190 187 180 177 181 185 186 186 188 186 185 186 186 186 186 185 185 189 193 191 192 196 194 195 200 201 203 204 203 204 206 212 217 215 217 219 218 217 218 219 211 206 214 221 224 220 210 211 211 210 220 224 229 237 233 231 238 241 241 242 245 244 243 252 253 251 257 261 265 271 278 289 296 296 296 296 296
204 203 201 199 196 194 192 189 187 187 187 187 181 176 176 180 185 187 185 181 177 180 182 183 185 185 184 186 191 191 188 191 195 194 195 196 196 202 205 204 201 202 207 209 210 214 218 219 217 217 222 214 203 204 211 219 217 209 211 211 209 215 222 230 237 236 237 240 240 241 239 237 235 240 249 244 243 253 257 262 269 274 284 291 296 297 296 296
203 202 199 196 194 194 192 189 188 185 184 181 175 173 177 180 184 184 182 178 176 180 182 181 181 181 183 188 190 186 187 194 193 188 192 194 193 200 206 206 203 200 202 205 207 208 210 218 218 213 216 215 208 206 206 210 212 211 211 212 215 218 220 228 233 231 235 242 243 242 238 231 226 234 245 239 238 248 253 261 267 273 281 286 295 300 298 297
199 197 194 190 190 191 189 187 185 181 180 177 172 174 178 180 178 176 178 180 180 189 189 182 177 177 183 188 186 184 185 190 189 185 189 192 192 198 202 204 204 200 200 205 209 207 207 217 220 213 210 209 210 213 210 209 218 218 213 214 221 221 221 228 231 226 226 235 240 234 234 232 219 222 239 241 239 248 256 264 270 276 283 290 295 297 296 296
190 187 186 185 184 184 183 182 180 179 179 174 172 177 179 176 173 171 174 178 186 202 193 183 178 176 180 182 182 186 185 183 184 184 189 192 192 196 200 202 202 199 199 203 208 206 205 217 222 213 211 212 210 211 212 216 222 220 217 222 223 217 216 226 234 232 226 230 238 229 222 224 219 224 241 247 247 252 260 265 269 273 280 291 294 296 297 298
180 180 181 182 180 177 176 176 176 177 177 173 173 178 179 174 171 169 171 173 189 200 182 177 176 176 180 182 184 188 187 186 185 184 188 192 194 201 203 201 201 202 202 201 207 208 203 215 222 211 213 221 213 207 214 219 213 210 218 225 221 219 224 227 229 232 227 229 239 235 219 220 226 235 245 252 255 255 259 262 264 270 279 289 293 296 301 300
175 176 178 178 176 172 172 172 173 175 174 172 175 177 174 171 169 169 173 174 177 170 163 165 172 175 180 186 194 193 188 189 190 187 186 188 194 201 203 202 205 210 205 199 205 213 205 212 223 213 211 218 212 208 219 226 218 213 218 220 216 219 229 230 225 225 223 226 236 238 230 229 235 242 246 254 257 254 260 264 267 274 282 290 293 297 301 301
172 171 171 170 169 167 169 170 171 173 172 173 175 173 171 174 178 185 187 181 172 164 162 165 170 174 178 184 194 193 187 188 190 188 188 188 192 197 201 203 205 210 206 197 203 211 206 207 218 218 215 215 213 214 219 223 226 225 222 225 225 222 223 225 224 221 218 224 229 230 235 236 238 246 249 252 255 255 262 267 270 278 286 292 294 296 299 300
169 169 167 165 164 164 167 169 170 171 172 173 173 171 174 178 183 192 190 182 177 172 172 173 169 170 176 181 188 189 185 185 186 188 191 191 192 195 200 203 203 205 206 201 204 210 209 208 213 220 219 212 210 219 220 218 221 223 222 226 231 229 225 223 226 225 219 221 224 225 235 239 239 247 250 249 255 259 264 267 271 282 289 295 299 300 302 304
167 167 166 165 163 163 165 167 170 171 172 172 170 172 177 179 183 193 188 178 178 175 172 171 166 164 168 173 182 185 182 182 185 188 191 193 194 199 204 205 204 204 204 205 207 209 211 210 209 214 211 202 207 217 219 216 214 215 216 221 225 225 224 222 229 235 227 223 224 223 233 238 239 247 246 243 252 260 270 273 273 284 294 299 301 305 310 310
167 166 165 165 165 163 164 167 170 170 169 170 173 178 183 182 185 190 180 169 173 175 171 168 166 163 161 162 170 175 175 178 185 189 190 194 197 202 209 210 209 206 203 207 212 210 209 207 206 210 207 202 206 208 210 216 214 208 214 223 226 226 224 220 226 232 229 229 231 228 234 237 238 245 245 244 253 265 280 283 279 286 296 298 300 305 312 313
165 165 164 166 168 166 163 165 168 168 170 173 178 186 189 185 182 180 172 166 169 172 171 170 170 166 161 164 169 170 171 172 177 184 189 195 200 204 207 210 213 212 209 213 217 212 209 207 207 212 215 214 213 210 214 224 221 217 224 231 232 232 229 222 222 225 224 230 231 231 240 239 237 244 247 250 260 269 282 288 288 291 292 294 300 306 309 311
162 164 164 166 170 167 162 163 166 168 173 176 179 186 188 185 180 175 172 176 177 173 170 173 177 173 168 171 171 171 174 177 179 184 189 194 200 202 203 207 215 218 218 216 216 214 213 211 209 209 215 219 218 219 225 230 226 221 225 234 237 236 233 228 227 227 229 230 224 224 237 236 232 239 245 250 260 271 282 287 290 291 290 291 297 303 304 305
158 161 163 165 168 167 165 165 167 170 173 175 179 182 180 178 177 172 172 182 187 182 178 179 181 178 176 175 174 171 173 180 185 191 194 194 197 200 202 209 215 219 221 217 213 213 214 213 212 211 213 216 215 218 224 228 229 226 227 237 241 239 237 232 229 229 231 231 228 227 229 225 226 236 243 250 257 268 280 286 290 291 292 294 294 296 298 299
156 158 159 161 163 165 168 169 169 170 172 172 174 175 171 174 179 176 173 181 186 187 186 185 184 185 185 182 181 181 182 189 194 197 200 202 205 210 211 213 218 220 223 223 220 217 214 215 216 212 212 215 215 219 224 226 228 230 232 241 244 244 241 232 229 232 229 228 236 236 225 218 228 238 244 251 257 262 270 277 283 285 290 294 293 295 298 299
154 156 157 158 161 164 168 170 169 169 169 169 170 172 173 179 184 184 182 182 184 188 190 191 190 192 196 193 190 194 200 206 206 203 208 212 212 214 215 218 225 222 220 229 231 222 215 218 221 214 212 213 212 216 224 226 227 229 232 239 245 247 244 235 235 237 229 227 237 236 224 222 234 241 245 250 254 257 263 270 276 278 284 288 290 300 309 308
152 156 156 156 158 161 164 166 167 168 170 172 173 173 173 176 179 184 187 186 187 189 190 197 200 195 197 198 197 204 211 213 214 214 217 220 219 221 225 230 232 224 217 227 232 221 215 218 221 216 213 213 211 212 218 221 224 227 228 235 243 247 245 240 239 237 230 230 231 224 220 228 236 242 247 251 253 256 262 267 269 272 280 282 286 299 311 313
152 154 154 153 154 158 161 164 165 165 169 173 174 175 174 174 178 184 187 186 190 192 186 194 205 200 199 202 202 207 213 211 214 219 220 223 226 226 228 233 236 232 223 223 225 220 216 218 220 215 210 213 215 214 215 216 219 223 225 229 236 241 243 240 237 234 230 231 228 219 217 229 239 243 248 252 253 253 256 263 268 273 280 282 285 291 299 306
149 150 151 150 152 154 157 163 164 162 166 170 171 177 175 171 175 182 183 180 183 194 193 192 198 193 192 201 203 210 216 208 207 215 218 220 225 227 228 229 232 234 229 222 223 223 215 213 216 213 207 211 214 211 211 211 210 215 223 229 231 234 241 242 238 237 234 229 227 224 222 230 239 243 246 249 248 246 252 264 271 273 278 285 288 287 288 295
150 151 150 149 151 152 155 162 163 160 166 169 169 176 174 170 172 173 175 176 174 181 189 188 190 190 190 193 197 209 217 209 205 211 214 214 219 224 226 223 220 223 227 224 223 223 215 211 216 216 210 212 212 207 207 209 208 212 224 233 233 230 235 238 238 240 235 225 225 229 230 233 237 239 242 243 241 242 254 266 270 271 276 283 285 284 286 290
149 148 148 147 150 152 154 161 161 159 167 172 167 168 166 164 169 167 169 180 174 172 178 181 187 195 193 189 193 202 209 209 209 212 211 211 218 223 220 214 213 217 220 219 218 219 215 210 214 218 213 212 214 213 211 216 222 228 234 237 234 227 227 231 236 243 239 230 230 234 232 231 234 235 235 238 241 247 256 263 266 268 270 274 278 281 285 287